Location: Eitze
(52.9840°N, 9.6894°E)
Time: 16:36:04
(UTC+00:00)

Cosmos 1980 Rocket - Pass Details

Date: 19 May 2025
Orbit: 829 x 847 km, 71.0° (Epoch: 17 June)

Event Time Altitude Azimuth Distance (km) Brightness Sun altitude
Rises 20:44:33 0° 328° (NNW) 3,384 7.7 -9.9°
Reaches altitude 10° 20:47:00 10° 330° (NNW) 2,447 6.2 -10.1°
Maximum altitude 20:52:37 81° 58° (ENE) 848 2.2 -10.6°
Enters shadow 20:57:25 15° 145° (SE) 2,132 3.6 -11.0°
